Hourly Data Report for September 16, 2017

All times are specified in Local Standard Time (LST). Add 1 hour to adjust for Daylight Saving Time where and when it is observed.

MIRAMICHI RCS
NEW BRUNSWICK

47°00'34.000" N
65°27'54.000" W
33.00 m
8100989
71744
ACQ

Download Data

Hourly Data (September 2017)
Hourly Data Report for September 16, 2017
Temp Definition
°C
Dew Point Temp Definition
°C
Rel Hum Definition
%
Wind Dir Definition
10's deg

Wind Spd Definition
km/h
Visibility Definition
km
Stn Press Definition
kPa
Hmdx Definition


Wind Chill Definition


Weather Definition


TIME
00:00 12.6 10.7 89 28 4   101.52     LegendNANA
01:00 11.6 10.5 93 25 6   101.49     LegendNANA
02:00 11.4 10.1 92 0 1   101.45     LegendNANA
03:00 11.6 10.1 91 24 6   101.45     LegendNANA
04:00 11.7 10.7 94 24 5   101.40     LegendNANA
05:00 11.0 10.0 94 23 11   101.40     LegendNANA
06:00 12.0 10.9 93 25 9   101.41     LegendNANA
07:00 12.4 11.2 93 24 13   101.43     LegendNANA
08:00 14.0 12.5 91 24 12   101.42     LegendNANA
09:00 16.8 13.7 82 24 13   101.41     LegendNANA
10:00 19.3 14.3 73 25 17   101.39     LegendNANA
11:00 21.6 15.3 67 25 14   101.34 26   LegendNANA
12:00 24.3 16.4 61 25 12   101.34 29   LegendNANA
13:00 25.9 16.4 56 25 9   101.35 31   LegendNANA
14:00 20.8 13.8 64 7 26   101.39     LegendNANA
15:00 15.5 12.4 82 6 28   101.55     LegendNANA
16:00 15.3 11.5 78 7 27   101.62     LegendNANA
17:00 14.8 11.3 80 6 19   101.68     LegendNANA
18:00 14.3 11.5 83 7 16   101.71     LegendNANA
19:00 14.0 11.1 83 9 13   101.75     LegendNANA
20:00 13.6 10.8 83 11 12   101.78     LegendNANA
21:00 13.2 10.2 82 8 9   101.81     LegendNANA
22:00 13.5 9.8 79 7 9   101.85     LegendNANA
23:00 13.4 9.4 77 5 4   101.89     LegendNANA

Notes on Data Quality.

Legend

  • E = Estimated
  • M = Missing
  • NA = Not Available
  • ‡ = Partner data that is not subject to review by the National Climate Archives
Date modified: